#Datum;Uhrzeit;WR;Pac;DaySum;Status;WR;Pac;DaySum;Status;Pdc1;Udc;Temp;WR;Pac;DaySum;Status;Pdc1;Udc;Temp;WR;Pac;DaySum;Status;Pdc1;Udc;Temp;WR;Pac;DaySum;Status;Pdc1;Pdc2;Udc1;Udc2;Temp;WR;Pac;DaySum;Status;Pdc1;Pdc2;Udc1;Udc2;Temp;WR;Pac;DaySum;Status;Pdc1;Udc;Temp;WR;Pac;DaySum;Status;Pdc1;Udc;Temp;WR;Pac;DaySum;Status;Pdc1;Udc;Temp
09.11.19;23:55:00;1;211;8900;0;2;0;3361;0;0;0;0;3;0;2020;0;0;0;0;4;0;2721;0;0;0;0;5;0;6781;0;0;0;0;0;0;6;0;4973;0;0;0;0;0;0;7;0;3485;0;0;0;0;8;0;3465;0;0;0;0;9;0;1752;0;0;0;0
09.11.19;23:50:00;1;211;8883;0;2;0;3361;0;0;0;0;3;0;2020;0;0;0;0;4;0;2721;0;0;0;0;5;0;6781;0;0;0;0;0;0;6;0;4973;0;0;0;0;0;0;7;0;3485;0;0;0;0;8;0;3465;0;0;0;0;9;0;1752;0;0;0;0
09.11.19;23:45:00;1;212;8865;0;2;0;3361;0;0;0;0;3;0;2020;0;0;0;0;4;0;2721;0;0;0;0;5;0;6781;0;0;0;0;0;0;6;0;4973;0;0;0;0;0;0;7;0;3485;0;0;0;0;8;0;3465;0;0;0;0;9;0;1752;0;0;0;0
09.11.19;23:40:00;1;212;8847;0;2;0;3361;0;0;0;0;3;0;2020;0;0;0;0;4;0;2721;0;0;0;0;5;0;6781;0;0;0;0;0;0;6;0;4973;0;0;0;0;0;0;7;0;3485;0;0;0;0;8;0;3465;0;0;0;0;9;0;1752;0;0;0;0
09.11.19;23:35:00;1;254;8829;0;2;0;3361;0;0;0;0;3;0;2020;0;0;0;0;4;0;2721;0;0;0;0;5;0;6781;0;0;0;0;0;0;6;0;4973;0;0;0;0;0;0;7;0;3485;0;0;0;0;8;0;3465;0;0;0;0;9;0;1752;0;0;0;0
09.11.19;23:30:00;1;256;8808;0;2;0;3361;0;0;0;0;3;0;2020;0;0;0;0;4;0;2721;0;0;0;0;5;0;6781;0;0;0;0;0;0;6;0;4973;0;0;0;0;0;0;7;0;3485;0;0;0;0;8;0;3465;0;0;0;0;9;0;1752;0;0;0;0
09.11.19;23:25:00;1;300;8787;0;2;0;3361;0;0;0;0;3;0;2020;0;0;0;0;4;0;2721;0;0;0;0;5;0;6781;0;0;0;0;0;0;6;0;4973;0;0;0;0;0;0;7;0;3485;0;0;0;0;8;0;3465;0;0;0;0;9;0;1752;0;0;0;0
09.11.19;23:20:00;1;256;8761;0;2;0;3361;0;0;0;0;3;0;2020;0;0;0;0;4;0;2721;0;0;0;0;5;0;6781;0;0;0;0;0;0;6;0;4973;0;0;0;0;0;0;7;0;3485;0;0;0;0;8;0;3465;0;0;0;0;9;0;1752;0;0;0;0
09.11.19;23:15:00;1;245;8741;0;2;0;3361;0;0;0;0;3;0;2020;0;0;0;0;4;0;2721;0;0;0;0;5;0;6781;0;0;0;0;0;0;6;0;4973;0;0;0;0;0;0;7;0;3485;0;0;0;0;8;0;3465;0;0;0;0;9;0;1752;0;0;0;0
09.11.19;23:10:00;1;326;8720;0;2;0;3361;0;0;0;0;3;0;2020;0;0;0;0;4;0;2721;0;0;0;0;5;0;6781;0;0;0;0;0;0;6;0;4973;0;0;0;0;0;0;7;0;3485;0;0;0;0;8;0;3465;0;0;0;0;9;0;1752;0;0;0;0
09.11.19;23:05:00;1;329;8693;0;2;0;3361;0;0;0;0;3;0;2020;0;0;0;0;4;0;2721;0;0;0;0;5;0;6781;0;0;0;0;0;0;6;0;4973;0;0;0;0;0;0;7;0;3485;0;0;0;0;8;0;3465;0;0;0;0;9;0;1752;0;0;0;0
09.11.19;23:00:00;1;330;8665;0;2;0;3361;0;0;0;0;3;0;2020;0;0;0;0;4;0;2721;0;0;0;0;5;0;6781;0;0;0;0;0;0;6;0;4973;0;0;0;0;0;0;7;0;3485;0;0;0;0;8;0;3465;0;0;0;0;9;0;1752;0;0;0;0
09.11.19;22:55:00;1;334;8637;0;2;0;3361;0;0;0;0;3;0;2020;0;0;0;0;4;0;2721;0;0;0;0;5;0;6781;2;0;0;0;0;0;6;0;4973;2;0;0;0;0;0;7;0;3485;0;0;0;0;8;0;3465;0;0;0;0;9;0;1752;0;0;0;0
09.11.19;22:50:00;1;376;8610;0;2;0;3361;0;0;0;0;3;0;2020;0;0;0;0;4;0;2721;0;0;0;0;5;0;6781;2;0;0;0;0;0;6;0;4973;2;0;0;0;0;0;7;0;3485;0;0;0;0;8;0;3465;0;0;0;0;9;0;1752;0;0;0;0
09.11.19;22:45:00;1;351;8577;0;2;0;3361;0;0;0;0;3;0;2020;0;0;0;0;4;0;2721;0;0;0;0;5;0;6781;2;0;0;0;0;0;6;0;4973;2;0;0;0;0;0;7;0;3485;0;0;0;0;8;0;3465;0;0;0;0;9;0;1752;0;0;0;0
09.11.19;22:40:00;1;300;8547;0;2;0;3361;0;0;0;0;3;0;2020;0;0;0;0;4;0;2721;0;0;0;0;5;0;6781;2;0;0;0;0;0;6;0;4973;2;0;0;0;0;0;7;0;3485;0;0;0;0;8;0;3465;0;0;0;0;9;0;1752;0;0;0;0
09.11.19;22:35:00;1;267;8522;0;2;0;3361;0;0;0;0;3;0;2020;0;0;0;0;4;0;2721;0;0;0;0;5;0;6781;2;0;0;0;0;0;6;0;4973;2;0;0;0;0;0;7;0;3485;0;0;0;0;8;0;3465;0;0;0;0;9;0;1752;0;0;0;0
09.11.19;22:30:00;1;222;8500;0;2;0;3361;0;0;0;0;3;0;2020;0;0;0;0;4;0;2721;0;0;0;0;5;0;6781;2;0;0;0;0;0;6;0;4973;2;0;0;0;0;0;7;0;3485;0;0;0;0;8;0;3465;0;0;0;0;9;0;1752;0;0;0;0
09.11.19;22:25:00;1;262;8481;0;2;0;3361;0;0;0;0;3;0;2020;0;0;0;0;4;0;2721;0;0;0;0;5;0;6781;2;0;0;0;0;0;6;0;4973;2;0;0;0;0;0;7;0;3485;0;0;0;0;8;0;3465;0;0;0;0;9;0;1752;0;0;0;0
09.11.19;22:20:00;1;271;8460;0;2;0;3361;0;0;0;0;3;0;2020;0;0;0;0;4;0;2721;0;0;0;0;5;0;6781;2;0;0;0;0;0;6;0;4973;2;0;0;0;0;0;7;0;3485;0;0;0;0;8;0;3465;0;0;0;0;9;0;1752;0;0;0;0
09.11.19;22:15:00;1;327;8437;0;2;0;3361;0;0;0;0;3;0;2020;0;0;0;0;4;0;2721;0;0;0;0;5;0;6781;2;0;0;0;0;0;6;0;4973;2;0;0;0;0;0;7;0;3485;0;0;0;0;8;0;3465;0;0;0;0;9;0;1752;0;0;0;0
09.11.19;22:10:00;1;236;8411;0;2;0;3361;0;0;0;0;3;0;2020;0;0;0;0;4;0;2721;0;0;0;0;5;0;6781;2;0;0;0;0;0;6;0;4973;2;0;0;0;0;0;7;0;3485;0;0;0;0;8;0;3465;0;0;0;0;9;0;1752;0;0;0;0
09.11.19;22:05:00;1;209;8392;0;2;0;3361;0;0;0;0;3;0;2020;0;0;0;0;4;0;2721;0;0;0;0;5;0;6781;2;0;0;0;0;0;6;0;4973;2;0;0;0;0;0;7;0;3485;0;0;0;0;8;0;3465;0;0;0;0;9;0;1752;0;0;0;0
09.11.19;22:00:00;1;239;8374;0;2;0;3361;0;0;0;0;3;0;2020;0;0;0;0;4;0;2721;0;0;0;0;5;0;6781;2;0;0;0;0;0;6;0;4973;2;0;0;0;0;0;7;0;3485;0;0;0;0;8;0;3465;0;0;0;0;9;0;1752;0;0;0;0
09.11.19;21:55:00;1;252;8354;0;2;0;3361;0;0;0;0;3;0;2020;0;0;0;0;4;0;2721;0;0;0;0;5;0;6781;2;0;0;0;0;0;6;0;4973;2;0;0;0;0;0;7;0;3485;0;0;0;0;8;0;3465;0;0;0;0;9;0;1752;0;0;0;0
09.11.19;21:50:00;1;254;8333;0;2;0;3361;0;0;0;0;3;0;2020;0;0;0;0;4;0;2721;0;0;0;0;5;0;6781;2;0;0;0;0;0;6;0;4973;2;0;0;0;0;0;7;0;3485;0;0;0;0;8;0;3465;0;0;0;0;9;0;1752;0;0;0;0
09.11.19;21:45:00;1;260;8311;0;2;0;3361;0;0;0;0;3;0;2020;0;0;0;0;4;0;2721;0;0;0;0;5;0;6781;2;0;0;0;0;0;6;0;4973;2;0;0;0;0;0;7;0;3485;0;0;0;0;8;0;3465;0;0;0;0;9;0;1752;0;0;0;0
09.11.19;21:40:00;1;245;8291;0;2;0;3361;0;0;0;0;3;0;2020;0;0;0;0;4;0;2721;0;0;0;0;5;0;6781;2;0;0;0;0;0;6;0;4973;2;0;0;0;0;0;7;0;3485;0;0;0;0;8;0;3465;0;0;0;0;9;0;1752;0;0;0;0
09.11.19;21:35:00;1;236;8271;0;2;0;3361;0;0;0;0;3;0;2020;0;0;0;0;4;0;2721;0;0;0;0;5;0;6781;2;0;0;0;0;0;6;0;4973;2;0;0;0;0;0;7;0;3485;0;0;0;0;8;0;3465;0;0;0;0;9;0;1752;0;0;0;0
09.11.19;21:30:00;1;212;8251;0;2;0;3361;0;0;0;0;3;0;2020;0;0;0;0;4;0;2721;0;0;0;0;5;0;6781;2;0;0;0;0;0;6;0;4973;2;0;0;0;0;0;7;0;3485;0;0;0;0;8;0;3465;0;0;0;0;9;0;1752;0;0;0;0
09.11.19;21:25:00;1;211;8233;0;2;0;3361;0;0;0;0;3;0;2020;0;0;0;0;4;0;2721;0;0;0;0;5;0;6781;2;0;0;0;0;0;6;0;4973;2;0;0;0;0;0;7;0;3485;0;0;0;0;8;0;3465;0;0;0;0;9;0;1752;0;0;0;0
09.11.19;21:20:00;1;211;8216;0;2;0;3361;0;0;0;0;3;0;2020;0;0;0;0;4;0;2721;0;0;0;0;5;0;6781;2;0;0;0;0;0;6;0;4973;2;0;0;0;0;0;7;0;3485;0;0;0;0;8;0;3465;0;0;0;0;9;0;1752;0;0;0;0
09.11.19;21:15:00;1;213;8198;0;2;0;3361;0;0;0;0;3;0;2020;0;0;0;0;4;0;2721;0;0;0;0;5;0;6781;2;0;0;0;0;0;6;0;4973;2;0;0;0;0;0;7;0;3485;0;0;0;0;8;0;3465;0;0;0;0;9;0;1752;0;0;0;0
09.11.19;21:10:00;1;274;8180;0;2;0;3361;0;0;0;0;3;0;2020;0;0;0;0;4;0;2721;0;0;0;0;5;0;6781;2;0;0;0;0;0;6;0;4973;2;0;0;0;0;0;7;0;3485;0;0;0;0;8;0;3465;0;0;0;0;9;0;1752;0;0;0;0
09.11.19;21:05:00;1;361;8156;0;2;0;3361;0;0;0;0;3;0;2020;0;0;0;0;4;0;2721;0;0;0;0;5;0;6781;2;0;0;0;0;0;6;0;4973;2;0;0;0;0;0;7;0;3485;0;0;0;0;8;0;3465;0;0;0;0;9;0;1752;0;0;0;0
09.11.19;21:00:00;1;349;8126;0;2;0;3361;0;0;0;0;3;0;2020;0;0;0;0;4;0;2721;0;0;0;0;5;0;6781;2;0;0;0;0;0;6;0;4973;2;0;0;0;0;0;7;0;3485;0;0;0;0;8;0;3465;0;0;0;0;9;0;1752;0;0;0;0
09.11.19;20:55:00;1;295;8098;0;2;0;3361;0;0;0;0;3;0;2020;0;0;0;0;4;0;2721;0;0;0;0;5;0;6781;2;0;0;0;0;0;6;0;4973;2;0;0;0;0;0;7;0;3485;0;0;0;0;8;0;3465;0;0;0;0;9;0;1752;0;0;0;0
09.11.19;20:50:00;1;278;8073;0;2;0;3361;0;0;0;0;3;0;2020;0;0;0;0;4;0;2721;0;0;0;0;5;0;6781;2;0;0;0;0;0;6;0;4973;2;0;0;0;0;0;7;0;3485;0;0;0;0;8;0;3465;0;0;0;0;9;0;1752;0;0;0;0
09.11.19;20:45:00;1;276;8049;0;2;0;3361;0;0;0;0;3;0;2020;0;0;0;0;4;0;2721;0;0;0;0;5;0;6781;2;0;0;0;0;0;6;0;4973;2;0;0;0;0;0;7;0;3485;0;0;0;0;8;0;3465;0;0;0;0;9;0;1752;0;0;0;0
09.11.19;20:40:00;1;283;8026;0;2;0;3361;0;0;0;0;3;0;2020;0;0;0;0;4;0;2721;0;0;0;0;5;0;6781;2;0;0;0;0;0;6;0;4973;2;0;0;0;0;0;7;0;3485;0;0;0;0;8;0;3465;0;0;0;0;9;0;1752;0;0;0;0
09.11.19;20:35:00;1;210;8003;0;2;0;3361;0;0;0;0;3;0;2020;0;0;0;0;4;0;2721;0;0;0;0;5;0;6781;2;0;0;0;0;0;6;0;4973;2;0;0;0;0;0;7;0;3485;0;0;0;0;8;0;3465;0;0;0;0;9;0;1752;0;0;0;0
09.11.19;20:30:00;1;245;7985;0;2;0;3361;0;0;0;0;3;0;2020;0;0;0;0;4;0;2721;0;0;0;0;5;0;6781;2;0;0;0;0;0;6;0;4973;2;0;0;0;0;0;7;0;3485;0;0;0;0;8;0;3465;0;0;0;0;9;0;1752;0;0;0;0
09.11.19;20:25:00;1;236;7964;0;2;0;3361;0;0;0;0;3;0;2020;0;0;0;0;4;0;2721;0;0;0;0;5;0;6781;2;0;0;0;0;0;6;0;4973;2;0;0;0;0;0;7;0;3485;0;0;0;0;8;0;3465;0;0;0;0;9;0;1752;0;0;0;0
09.11.19;20:20:00;1;252;7944;0;2;0;3361;0;0;0;0;3;0;2020;0;0;0;0;4;0;2721;0;0;0;0;5;0;6781;2;0;0;0;0;0;6;0;4973;2;0;0;0;0;0;7;0;3485;0;0;0;0;8;0;3465;0;0;0;0;9;0;1752;0;0;0;0
09.11.19;20:15:00;1;253;7923;0;2;0;3361;0;0;0;0;3;0;2020;0;0;0;0;4;0;2721;0;0;0;0;5;0;6781;2;0;0;0;0;0;6;0;4973;2;0;0;0;0;0;7;0;3485;0;0;0;0;8;0;3465;0;0;0;0;9;0;1752;0;0;0;0
09.11.19;20:10:00;1;262;7902;0;2;0;3361;0;0;0;0;3;0;2020;0;0;0;0;4;0;2721;0;0;0;0;5;0;6781;2;0;0;0;0;0;6;0;4973;2;0;0;0;0;0;7;0;3485;0;0;0;0;8;0;3465;0;0;0;0;9;0;1752;0;0;0;0
09.11.19;20:05:00;1;210;7880;0;2;0;3361;0;0;0;0;3;0;2020;0;0;0;0;4;0;2721;0;0;0;0;5;0;6781;2;0;0;0;0;0;6;0;4973;2;0;0;0;0;0;7;0;3485;0;0;0;0;8;0;3465;0;0;0;0;9;0;1752;0;0;0;0
09.11.19;20:00:00;1;209;7862;0;2;0;3361;0;0;0;0;3;0;2020;0;0;0;0;4;0;2721;0;0;0;0;5;0;6781;2;0;0;0;0;0;6;0;4973;2;0;0;0;0;0;7;0;3485;0;0;0;0;8;0;3465;0;0;0;0;9;0;1752;0;0;0;0
09.11.19;19:55:00;1;253;7845;0;2;0;3361;0;0;0;0;3;0;2020;0;0;0;0;4;0;2721;0;0;0;0;5;0;6781;2;0;0;0;0;0;6;0;4973;2;0;0;0;0;0;7;0;3485;0;0;0;0;8;0;3465;0;0;0;0;9;0;1752;0;0;0;0
09.11.19;19:50:00;1;218;7824;0;2;0;3361;0;0;0;0;3;0;2020;0;0;0;0;4;0;2721;0;0;0;0;5;0;6781;2;0;0;0;0;0;6;0;4973;2;0;0;0;0;0;7;0;3485;0;0;0;0;8;0;3465;0;0;0;0;9;0;1752;0;0;0;0
09.11.19;19:45:00;1;212;7805;0;2;0;3361;0;0;0;0;3;0;2020;0;0;0;0;4;0;2721;0;0;0;0;5;0;6781;2;0;0;0;0;0;6;0;4973;2;0;0;0;0;0;7;0;3485;0;0;0;0;8;0;3465;0;0;0;0;9;0;1752;0;0;0;0
09.11.19;19:40:00;1;213;7787;0;2;0;3361;0;0;0;0;3;0;2020;0;0;0;0;4;0;2721;0;0;0;0;5;0;6781;2;0;0;0;0;0;6;0;4973;2;0;0;0;0;0;7;0;3485;0;0;0;0;8;0;3465;0;0;0;0;9;0;1752;0;0;0;0
09.11.19;19:35:00;1;253;7769;0;2;0;3361;0;0;0;0;3;0;2020;0;0;0;0;4;0;2721;0;0;0;0;5;0;6781;2;0;0;0;0;0;6;0;4973;2;0;0;0;0;0;7;0;3485;0;0;0;0;8;0;3465;0;0;0;0;9;0;1752;0;0;0;0
09.11.19;19:30:00;1;255;7748;0;2;0;3361;0;0;0;0;3;0;2020;0;0;0;0;4;0;2721;0;0;0;0;5;0;6781;2;0;0;0;0;0;6;0;4973;2;0;0;0;0;0;7;0;3485;0;0;0;0;8;0;3465;0;0;0;0;9;0;1752;0;0;0;0
09.11.19;19:25:00;1;256;7727;0;2;0;3361;0;0;0;0;3;0;2020;0;0;0;0;4;0;2721;0;0;0;0;5;0;6781;2;0;0;0;0;0;6;0;4973;2;0;0;0;0;0;7;0;3485;0;0;0;0;8;0;3465;0;0;0;0;9;0;1752;0;0;0;0
09.11.19;19:20:00;1;281;7706;0;2;0;3361;0;0;0;0;3;0;2020;0;0;0;0;4;0;2721;0;0;0;0;5;0;6781;2;0;0;0;0;0;6;0;4973;2;0;0;0;0;0;7;0;3485;0;0;0;0;8;0;3465;0;0;0;0;9;0;1752;0;0;0;0
09.11.19;19:15:00;1;213;7681;0;2;0;3361;0;0;0;0;3;0;2020;0;0;0;0;4;0;2721;0;0;0;0;5;0;6781;2;0;0;0;0;0;6;0;4973;2;0;0;0;0;0;7;0;3485;0;0;0;0;8;0;3465;0;0;0;0;9;0;1752;0;0;0;0
09.11.19;19:10:00;1;222;7663;0;2;0;3361;0;0;0;0;3;0;2020;0;0;0;0;4;0;2721;0;0;0;0;5;0;6781;2;0;0;0;0;0;6;0;4973;2;0;0;0;0;0;7;0;3485;0;0;0;0;8;0;3465;0;0;0;0;9;0;1752;0;0;0;0
09.11.19;19:05:00;1;278;7645;0;2;0;3361;0;0;0;0;3;0;2020;0;0;0;0;4;0;2721;0;0;0;0;5;0;6781;2;0;0;0;0;0;6;0;4973;2;0;0;0;0;0;7;0;3485;0;0;0;0;8;0;3465;0;0;0;0;9;0;1752;0;0;0;0
09.11.19;19:00:00;1;279;7621;0;2;0;3361;0;0;0;0;3;0;2020;0;0;0;0;4;0;2721;0;0;0;0;5;0;6781;2;0;0;0;0;0;6;0;4973;2;0;0;0;0;0;7;0;3485;0;0;0;0;8;0;3465;0;0;0;0;9;0;1752;0;0;0;0
09.11.19;18:55:00;1;279;7598;0;2;0;3361;0;0;0;0;3;0;2020;0;0;0;0;4;0;2721;0;0;0;0;5;0;6781;2;0;0;0;0;0;6;0;4973;2;0;0;0;0;0;7;0;3485;0;0;0;0;8;0;3465;0;0;0;0;9;0;1752;0;0;0;0
09.11.19;18:50:00;1;302;7575;0;2;0;3361;0;0;0;0;3;0;2020;0;0;0;0;4;0;2721;0;0;0;0;5;0;6781;2;0;0;0;0;0;6;0;4973;2;0;0;0;0;0;7;0;3485;0;0;0;0;8;0;3465;0;0;0;0;9;0;1752;0;0;0;0
09.11.19;18:45:00;1;406;7549;0;2;0;3361;0;0;0;0;3;0;2020;0;0;0;0;4;0;2721;0;0;0;0;5;0;6781;2;0;0;0;0;0;6;0;4973;2;0;0;0;0;0;7;0;3485;0;0;0;0;8;0;3465;0;0;0;0;9;0;1752;0;0;0;0
09.11.19;18:40:00;1;323;7518;0;2;0;3361;0;0;0;0;3;0;2020;0;0;0;0;4;0;2721;0;0;0;0;5;0;6781;2;0;0;0;0;0;6;0;4973;2;0;0;0;0;0;7;0;3485;0;0;0;0;8;0;3465;0;0;0;0;9;0;1752;0;0;0;0
09.11.19;18:35:00;1;347;7490;0;2;0;3361;0;0;0;0;3;0;2020;0;0;0;0;4;0;2721;0;0;0;0;5;0;6781;2;0;0;0;0;0;6;0;4973;2;0;0;0;0;0;7;0;3485;0;0;0;0;8;0;3465;0;0;0;0;9;0;1752;0;0;0;0
09.11.19;18:30:00;1;211;7468;0;2;0;3361;0;0;0;0;3;0;2020;0;0;0;0;4;0;2721;0;0;0;0;5;0;6781;2;0;0;0;0;0;6;0;4973;2;0;0;0;0;0;7;0;3485;0;0;0;0;8;0;3465;0;0;0;0;9;0;1752;0;0;0;0
09.11.19;18:25:00;1;210;7450;0;2;0;3361;0;0;0;0;3;0;2020;0;0;0;0;4;0;2721;0;0;0;0;5;0;6781;2;0;0;0;0;0;6;0;4973;2;0;0;0;0;0;7;0;3485;0;0;0;0;8;0;3465;0;0;0;0;9;0;1752;0;0;0;0
09.11.19;18:20:00;1;211;7433;0;2;0;3361;0;0;0;0;3;0;2020;0;0;0;0;4;0;2721;0;0;0;0;5;0;6781;2;0;0;0;0;0;6;0;4973;2;0;0;0;0;0;7;0;3485;0;0;0;0;8;0;3465;0;0;0;0;9;0;1752;0;0;0;0
09.11.19;18:15:00;1;227;7415;0;2;0;3361;0;0;0;0;3;0;2020;0;0;0;0;4;0;2721;0;0;0;0;5;0;6781;2;0;0;0;0;0;6;0;4973;2;0;0;0;0;0;7;0;3485;0;0;0;0;8;0;3465;0;0;0;0;9;0;1752;0;0;0;0
09.11.19;18:10:00;1;253;7396;0;2;0;3361;0;0;0;0;3;0;2020;0;0;0;0;4;0;2721;0;0;0;0;5;0;6781;2;0;0;0;0;0;6;0;4973;2;0;0;0;0;0;7;0;3485;0;0;0;0;8;0;3465;0;0;0;0;9;0;1752;0;0;0;0
09.11.19;18:05:00;1;216;7375;0;2;0;3361;0;0;0;0;3;0;2020;0;0;0;0;4;0;2721;0;0;0;0;5;0;6781;2;0;0;0;0;0;6;0;4973;2;0;0;0;0;0;7;0;3485;0;0;0;0;8;0;3465;0;0;0;0;9;0;1752;0;0;0;0
09.11.19;18:00:00;1;252;7356;0;2;0;3361;0;0;0;0;3;0;2020;0;0;0;0;4;0;2721;0;0;0;0;5;0;6781;2;0;0;0;0;0;6;0;4973;2;0;0;0;0;0;7;0;3485;0;0;0;0;8;0;3465;0;0;0;0;9;0;1752;0;0;0;0
09.11.19;17:55:00;1;253;7335;0;2;0;3361;0;0;0;0;3;0;2020;0;0;0;0;4;0;2721;0;0;0;0;5;0;6781;2;0;0;0;0;0;6;0;4973;2;0;0;0;0;0;7;0;3485;0;0;0;0;8;0;3465;0;0;0;0;9;0;1752;0;0;0;0
09.11.19;17:50:00;1;255;7314;0;2;0;3361;0;0;0;0;3;0;2020;0;0;0;0;4;0;2721;0;0;0;0;5;0;6781;2;0;0;0;0;0;6;0;4973;2;0;0;0;0;0;7;0;3485;0;0;0;0;8;0;3465;0;0;0;0;9;0;1752;0;0;0;0
09.11.19;17:45:00;1;211;7292;0;2;0;3361;0;0;0;0;3;0;2020;0;0;0;0;4;0;2721;0;0;0;0;5;0;6781;2;0;0;0;0;0;6;0;4973;2;0;0;0;0;0;7;0;3485;0;0;0;0;8;0;3465;0;0;0;0;9;0;1752;0;0;0;0
09.11.19;17:40:00;1;246;7274;0;2;0;3361;0;0;0;0;3;0;2020;0;0;0;0;4;0;2721;0;0;0;0;5;0;6781;2;0;0;0;0;0;6;0;4973;2;0;0;0;0;0;7;0;3485;0;0;0;0;8;0;3465;0;0;0;0;9;0;1752;0;0;0;0
09.11.19;17:35:00;1;235;7254;0;2;0;3361;0;0;0;0;3;0;2020;0;0;0;0;4;0;2721;0;0;0;0;5;0;6781;2;0;0;0;0;0;6;0;4973;2;0;0;0;0;0;7;0;3485;0;0;0;0;8;0;3465;0;0;0;0;9;0;1752;0;0;0;0
09.11.19;17:30:00;1;209;7234;0;2;0;3361;0;0;0;0;3;0;2020;0;0;0;0;4;0;2721;0;0;0;0;5;0;6781;2;0;0;0;0;0;6;0;4973;2;0;0;0;0;0;7;0;3485;0;0;0;0;8;0;3465;0;0;0;0;9;0;1752;0;0;0;0
09.11.19;17:25:00;1;215;7217;0;2;0;3361;0;0;0;0;3;0;2020;0;0;0;0;4;0;2721;0;0;0;0;5;0;6781;2;0;0;0;0;0;6;0;4973;2;0;0;0;0;0;7;0;3485;0;0;0;0;8;0;3465;0;0;0;0;9;0;1752;0;0;0;0
09.11.19;17:20:00;1;260;7198;0;2;0;3361;0;0;0;0;3;0;2020;0;0;0;0;4;0;2721;0;0;0;0;5;0;6781;2;0;0;0;0;0;6;0;4973;2;0;0;0;0;0;7;0;3485;0;0;0;0;8;0;3465;0;0;0;0;9;0;1752;0;0;0;0
09.11.19;17:15:00;1;276;7176;0;2;0;3361;0;0;0;0;3;0;2020;0;0;0;0;4;0;2721;0;0;0;0;5;0;6781;2;0;0;0;0;0;6;0;4973;2;0;0;0;0;0;7;0;3485;0;0;0;0;8;0;3465;0;0;0;0;9;0;1752;0;0;0;0
09.11.19;17:10:00;1;278;7152;0;2;0;3361;0;0;0;0;3;0;2020;0;0;0;0;4;0;2721;0;0;0;0;5;0;6781;2;0;0;0;0;0;6;0;4973;2;0;0;0;0;0;7;0;3485;0;0;0;0;8;0;3465;0;0;0;0;9;0;1752;0;0;0;0
09.11.19;17:05:00;1;388;7128;0;2;0;3361;0;0;0;0;3;0;2020;0;0;0;0;4;0;2721;0;0;0;0;5;0;6781;2;0;0;0;0;0;6;0;4973;2;0;0;0;0;0;7;0;3485;0;0;0;0;8;0;3465;0;0;0;0;9;0;1752;0;0;0;0
09.11.19;17:00:00;1;329;7095;0;2;0;3361;0;0;229;11;3;0;2020;6;0;295;16;4;0;2721;0;0;29;6;5;0;6781;2;0;0;0;0;0;6;0;4973;2;0;0;0;0;0;7;0;3485;0;0;0;0;8;0;3465;0;0;0;0;9;0;1752;0;0;0;0
09.11.19;16:55:00;1;1146;7065;0;2;0;3361;6;0;336;14;3;0;2020;6;1;393;17;4;0;2721;1;0;107;13;5;0;6781;2;0;1;122;121;12;6;0;4973;0;1;1;59;100;9;7;0;3485;0;0;86;6;8;0;3465;0;0;86;5;9;0;1752;0;0;90;4
09.11.19;16:50:00;1;301;6982;0;2;0;3361;6;0;373;14;3;0;2020;6;2;445;17;4;0;2721;1;0;163;14;5;0;6781;26;0;0;366;368;25;6;0;4973;23;5;6;241;489;24;7;0;3485;6;0;317;18;8;0;3465;6;0;318;17;9;0;1752;6;0;325;13
09.11.19;16:45:00;1;360;6957;0;2;2;3361;6;7;399;14;3;0;2020;6;4;490;17;4;0;2721;3;0;214;14;5;34;6781;1;2;7;392;616;25;6;0;4973;23;5;4;338;574;25;7;2;3485;6;1;418;18;8;1;3465;6;1;419;18;9;0;1752;6;0;457;13
09.11.19;16:40:00;1;301;6927;0;2;4;3361;6;9;404;15;3;1;2020;6;6;506;17;4;0;2721;3;0;199;14;5;78;6778;4;11;23;366;575;26;6;10;4973;23;2;12;495;560;25;7;2;3485;6;4;453;18;8;0;3465;6;5;456;18;9;2;1752;4;2;497;13
09.11.19;16:35:00;1;328;6902;0;2;5;3361;6;9;412;15;3;1;2020;6;5;518;17;4;0;2721;3;0;199;14;5;87;6771;4;15;24;366;575;26;6;56;4971;4;15;34;467;445;26;7;1;3485;6;4;465;18;8;0;3465;6;4;465;18;9;2;1752;3;8;461;13
09.11.19;16:30:00;1;338;6877;0;2;27;3360;6;45;384;15;3;3;2020;4;8;520;17;4;2;2721;3;2;199;14;5;109;6764;4;32;36;366;575;26;6;72;4967;4;28;45;467;445;26;7;5;3484;6;8;474;19;8;2;3465;6;8;473;18;9;1;1751;6;10;488;13
09.11.19;16:25:00;1;322;6850;0;2;65;3358;4;95;366;16;3;11;2020;6;21;508;17;4;19;2721;3;20;198;14;5;141;6754;4;49;55;366;575;26;6;95;4960;4;39;60;467;445;26;7;34;3484;6;60;403;19;8;27;3465;6;46;412;18;9;2;1751;6;5;539;13
09.11.19;16:20:00;1;357;6823;0;2;111;3353;4;141;366;16;3;24;2019;6;38;527;18;4;40;2719;3;41;198;15;5;184;6742;4;75;73;366;575;26;6;126;4952;4;56;79;467;445;26;7;73;3481;4;105;393;19;8;68;3463;4;96;413;18;9;11;1751;6;20;514;13
09.11.19;16:15:00;1;373;6793;0;2;252;3344;4;285;362;16;3;136;2017;4;169;427;18;4;112;2716;3;116;215;15;5;230;6727;4;101;95;366;575;26;6;170;4942;4;74;94;467;445;26;7;96;3475;4;130;424;19;8;86;3457;4;120;430;18;9;6;1750;6;10;555;13
09.11.19;16:10:00;1;334;6761;0;2;389;3323;4;424;377;17;3;198;2006;4;232;411;18;4;202;2707;5;211;222;15;5;372;6707;4;182;157;382;581;26;6;266;4927;4;126;165;467;511;26;7;167;3467;4;203;439;19;8;119;3450;4;148;415;18;9;7;1750;4;13;550;14
09.11.19;16:05:00;1;328;6733;0;2;537;3291;4;580;386;17;3;276;1989;4;318;427;18;4;254;2690;5;264;212;15;5;525;6675;4;258;224;411;614;26;6;372;4904;4;172;228;467;560;26;7;253;3454;4;291;464;19;8;192;3440;4;228;451;18;9;19;1749;3;27;545;14
09.11.19;16:00:00;1;352;6706;0;2;655;3246;4;703;397;16;3;346;1966;4;389;432;18;4;292;2669;5;304;201;15;5;668;6630;4;322;282;417;673;26;6;456;4873;4;210;285;467;559;26;7;366;3433;4;411;493;19;8;298;3424;4;338;462;18;9;78;1747;4;101;466;14
09.11.19;15:55:00;1;314;6677;0;2;574;3192;4;619;397;16;3;295;1938;4;337;453;18;4;260;2645;5;271;210;15;5;617;6574;4;297;265;414;678;26;6;410;4834;4;191;224;467;484;26;7;499;3402;4;537;456;19;8;339;3399;4;373;499;18;9;10;1740;6;14;571;14
09.11.19;15:50:00;1;279;6651;0;2;299;3144;4;336;384;16;3;134;1913;4;172;525;18;4;154;2623;5;160;227;15;5;387;6523;4;186;166;373;575;26;6;266;4801;4;133;150;467;445;26;7;336;3361;4;380;480;19;8;247;3371;4;282;478;18;9;10;1740;6;14;561;14
09.11.19;15:45:00;1;345;6627;0;2;134;3118;4;167;380;16;3;77;1901;4;114;501;18;4;79;2610;3;82;199;15;5;263;6493;4;112;112;366;575;26;6;180;4779;4;84;99;467;445;26;7;112;3332;4;149;475;19;8;107;3350;4;141;466;18;9;15;1739;6;22;531;14
09.11.19;15:40:00;1;424;6598;0;2;118;3107;4;147;372;16;3;61;1895;4;98;471;18;4;68;2603;3;70;199;15;5;240;6471;4;106;100;366;575;26;6;163;4765;4;90;115;467;445;26;7;87;3322;4;124;447;19;8;76;3341;4;114;458;18;9;9;1738;6;13;549;14
09.11.19;15:35:00;1;461;6563;0;2;107;3097;4;136;369;16;3;54;1889;4;89;422;18;4;64;2598;3;67;199;15;5;248;6451;4;106;104;366;575;26;6;168;4751;4;78;93;467;446;26;7;75;3315;4;114;423;19;8;74;3335;4;107;458;18;9;6;1737;6;10;555;14
09.11.19;15:30:00;1;466;6524;0;2;110;3088;4;141;374;16;3;35;1885;4;57;486;18;4;72;2592;3;75;199;15;5;255;6430;4;116;106;366;575;26;6;175;4737;4;84;101;467;445;26;7;81;3309;4;112;452;19;8;77;3328;4;112;460;18;9;9;1737;4;13;551;14
09.11.19;15:25:00;1;409;6486;0;2;92;3079;4;120;368;16;3;8;1882;6;13;545;18;4;52;2586;3;54;199;15;5;219;6409;4;100;91;366;575;26;6;147;4723;4;60;79;467;445;26;7;61;3302;4;93;385;19;8;66;3322;4;94;393;18;9;16;1736;3;26;498;15
09.11.19;15:20:00;1;353;6452;0;2;68;3071;4;96;365;16;3;7;1881;6;14;532;18;4;34;2582;3;36;199;15;5;165;6391;4;60;66;366;575;26;6;112;4710;4;41;61;467;445;26;7;18;3297;4;26;450;19;8;17;3316;4;28;452;18;9;3;1734;6;6;532;15
09.11.19;15:15:00;1;392;6423;0;2;42;3065;4;65;373;16;3;7;1881;4;17;498;18;4;8;2579;3;8;199;15;5;145;6378;4;50;54;366;575;26;6;96;4701;4;48;72;467;445;26;7;4;3295;6;10;481;19;8;6;3315;6;9;482;19;9;1;1734;6;5;530;15
09.11.19;15:10:00;1;467;6390;0;2;27;3061;6;44;389;17;3;9;1880;3;21;493;18;4;10;2578;3;10;199;15;5;142;6366;4;50;53;366;575;26;6;92;4693;4;36;53;467;446;26;7;7;3295;3;8;373;15;8;2;3314;3;9;469;19;9;2;1734;6;10;489;15
09.11.19;15:05:00;1;811;6349;0;2;69;3059;4;97;360;17;3;6;1879;6;11;534;19;4;30;2577;3;32;198;15;5;185;6353;4;75;71;366;575;26;6;126;4685;4;52;75;467;445;26;7;45;3294;4;73;353;20;8;48;3314;4;72;364;19;9;4;1734;6;7;540;16
09.11.19;15:00:00;1;865;6284;0;2;109;3053;4;137;363;17;3;38;1879;6;61;515;19;4;57;2574;3;59;202;15;5;256;6338;4;117;104;366;575;26;6;172;4674;4;78;97;467;450;26;7;62;3290;4;96;428;20;8;64;3310;4;98;421;19;9;4;1733;4;7;538;16
09.11.19;14:55:00;1;774;6210;0;2;304;3044;4;341;396;18;3;180;1876;4;225;497;20;4;247;2570;5;257;231;16;5;629;6315;4;312;268;403;630;26;6;463;4658;4;236;258;572;552;26;7;286;3285;4;326;464;20;8;287;3304;4;324;464;19;9;153;1733;4;182;510;17
09.11.19;14:50:00;1;1016;6142;0;2;449;3020;4;496;398;18;3;276;1861;4;324;504;20;4;381;2550;5;397;238;16;5;937;6261;4;468;397;413;661;26;6;687;4618;4;348;369;584;565;26;7;499;3262;4;538;474;20;8;488;3281;4;537;467;19;9;259;1720;4;296;513;17
09.11.19;14:45:00;1;956;6058;0;2;861;2982;4;921;419;19;3;513;1838;4;566;516;20;4;696;2518;5;725;244;16;5;1656;6181;4;869;722;422;689;26;6;1235;4559;4;616;622;597;576;26;7;948;3220;4;992;491;20;8;934;3240;4;986;482;19;9;497;1699;4;546;532;17
09.11.19;14:40:00;1;824;5977;0;2;1290;2912;4;1361;398;18;3;751;1796;4;812;499;20;4;962;2461;5;1001;252;15;5;2246;6040;4;1188;985;431;702;26;6;1705;4453;4;842;858;601;586;26;7;1512;3143;4;1586;463;19;8;1485;3164;4;1566;461;19;9;810;1658;4;875;556;17
09.11.19;14:35:00;1;715;5902;0;2;504;2805;4;546;397;17;3;328;1734;4;376;514;19;4;415;2381;5;432;235;15;5;979;5858;4;485;425;412;656;26;6;775;4314;4;386;406;578;569;26;7;664;3017;4;719;475;20;8;678;3042;4;728;479;19;9;342;1593;4;384;524;16
09.11.19;14:30:00;1;687;5841;0;2;347;2760;4;386;403;17;3;215;1704;4;259;510;19;4;289;2345;5;301;233;15;5;736;5781;4;368;317;408;636;26;6;538;4254;4;260;299;533;557;26;7;397;2958;4;429;477;20;8;394;2981;4;433;480;19;9;214;1562;4;245;510;16
09.11.19;14:25:00;1;811;5785;0;2;282;2731;4;319;392;18;3;172;1686;4;212;515;20;4;231;2321;5;240;231;15;5;606;5720;4;300;253;401;632;26;6;422;4210;4;191;248;467;556;26;7;321;2925;4;360;477;20;8;325;2948;4;367;479;19;9;177;1544;4;208;514;16
09.11.19;14:20:00;1;699;5717;0;2;237;2708;4;273;377;18;3;146;1672;4;182;490;20;4;183;2301;5;191;228;16;5;524;5671;4;255;228;401;626;26;6;384;4176;4;176;206;551;551;26;7;247;2898;4;288;455;20;8;257;2921;4;291;453;19;9;133;1529;4;164;516;17
09.11.19;14:15:00;1;621;5660;0;2;390;2688;4;430;399;18;3;238;1660;4;282;500;20;4;325;2286;5;339;231;16;5;832;5626;4;411;357;411;644;26;6;615;4143;4;299;322;579;558;26;7;358;2877;4;397;479;20;8;359;2899;4;404;457;19;9;191;1518;4;223;515;17
09.11.19;14:10:00;1;655;5609;0;2;737;2656;4;790;409;19;3;459;1640;4;513;518;20;4;639;2259;5;666;243;16;5;1460;5555;4;758;637;424;700;26;6;1103;4089;4;564;580;598;561;26;7;697;2847;4;746;471;20;8;698;2869;4;741;482;19;9;368;1502;4;410;530;17
09.11.19;14:05:00;1;675;5554;0;2;987;2595;4;1049;413;18;3;625;1602;4;684;526;20;4;857;2207;5;893;245;16;5;1869;5428;4;967;816;426;695;26;6;1409;3994;4;716;727;596;581;26;7;1109;2790;4;1167;487;19;8;1110;2812;4;1173;480;19;9;600;1472;4;652;543;17
09.11.19;14:00:00;1;673;5498;0;2;963;2513;4;1021;413;18;3;611;1550;4;672;533;20;4;831;2135;5;866;244;15;5;1799;5272;4;933;785;429;709;26;6;1370;3876;4;696;707;602;575;26;7;1118;2697;4;1183;489;19;8;1128;2719;4;1188;474;19;9;608;1422;4;661;546;17
09.11.19;13:55:00;1;660;5441;0;2;638;2433;4;685;409;18;3;404;1500;4;454;518;20;4;541;2066;5;564;242;15;5;1238;5126;4;631;533;426;684;26;6;949;3764;4;467;488;594;569;26;7;758;2605;4;802;486;19;8;769;2627;4;811;481;19;9;409;1372;4;452;531;17
09.11.19;13:50:00;1;640;5386;0;2;473;2379;4;517;400;18;3;297;1465;4;343;513;20;4;396;2020;5;413;238;15;5;945;5024;4;467;400;417;654;26;6;714;3687;4;355;372;584;574;26;7;525;2540;4;563;482;19;8;424;2561;4;458;380;15;9;280;1337;4;313;521;16